N0YFE Weather Reports


Display with metric or nautical units.
time (UTC)temp
F
wind
direction
speed
MPH
gust
MPH
rain 1hr
in
rain 24hr
in
rain mn
in
humidity
%
barometer
mb
20221208063031 4 57 0.0 0.0 0.00 0.00 0.00 85 996.8
20221208061608 4 57 0.0 0.0 0.00 0.00 0.00 85 996.8
20221208060056 4 57 0.0 0.0 0.00 0.00 0.00 85 996.7
20221208054548 4 57 0.0 0.0 0.00 0.00 0.00 85 996.8
20221208053025 5 95 0.0 0.0 0.00 0.00 0.00 85 996.8
20221208051526 4 64 0.0 0.0 0.00 0.00 0.00 86 997.1
20221208050035 4 64 0.0 0.0 0.00 0.00 0.00 86 997.1
20221208044537 4 65 0.0 0.0 0.00 0.00 0.00 84 997.5
20221208043033 4 65 0.0 0.0 0.00 0.00 0.00 84 997.7
20221208041527 5 65 0.0 0.0 0.00 0.00 0.00 84 997.4
20221208040045 5 65 0.0 0.0 0.00 0.00 0.00 85 997.3
20221208034540 5 65 0.0 0.0 0.00 0.00 0.00 84 997.4
20221208033036 6 65 0.0 0.0 0.00 0.00 0.00 84 997.2
20221208031501 6 65 0.0 0.0 0.00 0.00 0.00 85 997.4
20221208030001 5 65 0.0 0.0 0.00 0.00 0.00 83 997.4
20221208024539 6 75 0.0 0.0 0.00 0.00 0.00 82 997.6
20221208023041 7 75 0.0 0.0 0.00 0.00 0.00 81 997.6
20221208014533 7 75 0.0 0.0 0.00 0.00 0.00 80 997.2
20221208013011 8 75 0.0 0.0 0.00 0.00 0.00 79 997.3
20221208011553 8 75 0.0 0.0 0.00 0.00 0.00 78 997.2
20221208010050 9 75 0.0 0.0 0.00 0.00 0.00 77 997.3
20221208003059 10 75 0.0 0.0 0.00 0.00 0.00 77 997.0
20221208001556 10 75 0.0 0.0 0.00 0.00 0.00 75 996.7
20221208000149 11 65 0.0 0.0 0.00 0.00 0.00 73 996.7
20221207234553 11 66 0.0 0.0 0.00 0.00 0.00 73 996.7
20221207233057 12 66 0.0 0.0 0.00 0.00 0.00 73 996.8
20221207231554 13 65 0.0 1.0 0.00 0.00 0.00 72 996.8
20221207230048 13 333 0.0 2.0 0.00 0.00 0.00 71 996.6
20221207224510 14 86 0.0 1.0 0.00 0.00 0.00 69 996.7
20221207223011 15 262 0.0 2.0 0.00 0.00 0.00 68 996.9
20221207221510 16 255 0.0 1.0 0.00 0.00 0.00 65 997.0
20221207220011 18 271 0.0 2.0 0.00 0.00 0.00 64 996.8
20221207214526 18 70 0.0 2.0 0.00 0.00 0.00 62 996.9
20221207213019 19 190 0.0 1.0 0.00 0.00 0.00 63 996.6
20221207211518 18 297 1.0 4.0 0.00 0.00 0.00 63 996.2
20221207210017 19 346 0.0 2.0 0.00 0.00 0.00 62 996.3
20221207204518 19 247 0.0 4.0 0.00 0.00 0.00 62 996.1
20221207203014 19 246 1.0 5.0 0.00 0.00 0.00 62 996.1
20221207201513 19 234 0.0 6.0 0.00 0.00 0.00 64 995.7
20221207200014 19 264 1.0 7.0 0.00 0.00 0.00 63 995.6
20221207194513 20 254 0.0 4.0 0.00 0.00 0.00 62 995.5
20221207193012 21 288 0.0 2.0 0.00 0.00 0.00 62 995.6
20221207191511 20 286 0.0 4.0 0.00 0.00 0.00 64 995.6
20221207190027 19 308 0.0 5.0 0.00 0.00 0.00 63 995.5
20221207184520 20 347 0.0 3.0 0.00 0.00 0.00 63 995.2
20221207183009 20 334 0.0 4.0 0.00 0.00 0.00 64 995.3
20221207181508 19 359 0.0 5.0 0.00 0.00 0.00 66 995.5
20221207180006 19 22 0.0 3.0 0.00 0.00 0.00 67 995.3
20221207174508 19 315 0.0 4.0 0.00 0.00 0.00 69 995.6
20221207173009 16 240 0.0 7.0 0.00 0.00 0.00 71 995.3
20221207171506 16 326 2.0 5.0 0.00 0.00 0.00 72 995.4
20221207170006 16 210 0.0 4.0 0.00 0.00 0.00 74 995.4
20221207163001 14 79 1.0 5.0 0.00 0.00 0.00 81 995.6
20221207161600 13 131 0.0 3.0 0.00 0.00 0.00 83 995.7
20221207160057 13 360 0.0 5.0 0.00 0.00 0.00 83 995.1
20221207153051 14 228 0.0 5.0 0.00 0.00 0.00 84 994.3
20221207151548 14 236 0.0 2.0 0.00 0.00 0.00 84 994.2
20221207150045 14 321 0.0 4.0 0.00 0.00 0.00 84 993.8
20221207143047 15 193 0.0 2.0 0.00 0.00 0.00 84 993.4
20221207141545 15 197 0.0 2.0 0.00 0.00 0.00 83 993.0
20221207140037 15 205 0.0 5.0 0.00 0.00 0.00 81 992.5
20221207133042 16 256 0.0 4.0 0.00 0.00 0.00 76 991.3
20221207131538 16 317 0.0 8.0 0.00 0.00 0.00 75 991.3
20221207130029 16 227 0.0 4.0 0.00 0.00 0.00 75 991.2
20221207123027 16 217 0.0 6.0 0.00 0.00 0.00 75 990.1
20221207121548 16 45 0.0 5.0 0.00 0.00 0.00 75 990.0
20221207120023 16 13 1.0 7.0 0.00 0.00 0.00 74 989.9
20221207113032 16 285 0.0 7.0 0.00 0.00 0.00 74 989.8
20221207111526 16 87 0.0 6.0 0.00 0.00 0.00 74 990.0
20221207110028 17 20 0.0 5.0 0.00 0.00 0.00 74 989.9
20221207104529 17 56 0.0 6.0 0.00 0.00 0.00 74 989.7
20221207103015 17 324 1.0 4.0 0.00 0.00 0.00 75 989.5
20221207101507 17 250 0.0 3.0 0.00 0.00 0.00 75 989.6
20221207094529 17 272 0.0 4.0 0.00 0.00 0.00 74 989.1
20221207093028 17 355 0.0 6.0 0.00 0.00 0.00 74 988.9
20221207091539 18 63 0.0 5.0 0.00 0.00 0.00 74 988.6
20221207090042 18 294 0.0 3.0 0.00 0.00 0.00 75 988.6
20221207083029 19 114 1.0 5.0 0.00 0.00 0.00 74 987.9
20221207081528 19 204 1.0 5.0 0.00 0.00 0.00 75 987.9
20221207074539 20 226 0.0 3.0 0.00 0.00 0.00 76 987.4
20221207073033 20 231 0.0 3.0 0.00 0.00 0.00 78 987.2
20221207070041 20 279 0.0 2.0 0.00 0.00 0.00 77 986.7
20221207064520 21 347 0.0 4.0 0.00 0.00 0.00 77 986.6